Location: Beuvrequen
(50.8014°N, 1.6652°E)
Time: 04:09:35
(UTC+00:00)

Cosmos 1844 - Pass Details

Date: 16 October 2021
Orbit: 822 x 868 km, 70.9° (Epoch: 05 December)

Event Time Altitude Azimuth Distance (km) Brightness Sun altitude
Rises 20:03:14 0° 330° (NNW) 3,466 7.6 -29.4°
Reaches altitude 10° 20:05:43 10° 332° (NNW) 2,524 6.8 -29.8°
Enters shadow 20:10:28 60° 350° (N) 994 4.1 -30.5°
